sat.trackr.live / text

‹ back to catalog

STARLINK-2119

NORAD 47397 · 2021-005BA

PAYLOAD ACTIVE UNKNOWN

§ Identity

Operator
Country
US
Launch date
2021-01-20
Launch site
AFETR
Launch vehicle
Mass (kg)
RCS (m²)

Purposes: comms

External: N2YO · Heavens-Above · Gunter

§ Orbital elements

Epoch: 2026-05-25T03:46:24.093120Z

Period
93.97 min
Inclination
53.1593°
Eccentricity
0.0001474
Mean motion
15.32345583 rev/d
Perigee alt
467.8 km
Apogee alt
469.8 km
Semi-major
6,847.0 km
B*
1.1688e-3
RAAN
67.0341°
Arg perigee
124.4914°
Mean anomaly
235.6227°
Rev number
29,474

§ Raw data

STARLINK-21191 47397U 21005BA  26145.15722330  .00036823  00000+0  11688-2 0  99962 47397  53.1593  67.0341 0001474 124.4914 235.6227 15.32345583294742

JSON: /api/v1/satellites/47397 · /tle

For live sub-satellite position, see the globe view (requires WebGL).

§ Visibility from observer

Set your observer location to see the next 7 days of passes ≥ 10°. The values pass through the URL so the page stays shareable.

No JS? Fill the form by hand. The geolocation button needs JavaScript.